Location: Banios
(43.0451°N, 0.2335°E)
Time: 09:43:02
(UTC+00:00)

A-11 Canister half - Pass Details

Date: 19 May 2021
Orbit: 1527 x 1681 km, 47.3° (Epoch: 22 June)

Event Time Altitude Azimuth Distance (km) Brightness Sun altitude
Rises 15:15:43 0° 292° (WNW) 4,853 12.2 42.4°
Reaches altitude 10° 15:19:39 10° 279° (W) 3,886 12.1 41.7°
Maximum altitude 15:26:50 23° 232° (SW) 3,000 11.8 40.4°
Drops below altitude 10° 15:34:07 10° 185° (S) 3,929 11.4 39.1°
Sets 15:38:10 0° 172° (S) 4,918 11.7 38.3°
